Powrót do katalogu

CZ-4 DEB

AktywnySSO
NORAD 20853·DEBRIS·🇨🇳 China

Wystrzelony Sep 3, 1990 z Taiyuan Satellite Launch Center

Loading…

Następne Przeloty (najbliższe 24 godziny)

TLE

ŚwieżeSource: Space-Track

Epoka: Sep 14, 2026, 12:08 UTC

1 20853U 90081R   26257.50624105  .00005920  00000-0  10097-2 0  9996
2 20853  98.2425 267.8715 0014576   0.9537 151.6942 14.69291655871511

Śledź CZ-4 DEB w czasie rzeczywistym z AllMySat

Download on the App Store